Weather History for Saranac Lake, NY

Change the Weather History Date:

Friday, November 11, 2011

  Actual Average Record
Temperature  
Mean Temperature 31 °F 34 °F  
Max Temperature 36 °F 44 °F 70 °F (1948)
Min Temperature 25 °F 24 °F 2 °F (1961)
Degree Days  
Heating Degree Days 34 31  
Month to date heating degree days 297 319  
Since 1 July heating degree days 1284 1611  
Moisture  
Dew Point 27 °F    
Average Humidity 85    
Maximum Humidity 100    
Minimum Humidity 69    
Precipitation  
Precipitation 0.04 in 0.10 in 1.09 in (2006)
Month to date precipitation 0.52 1.33  
Year to date precipitation 39.80 33.21  
Sea Level Pressure  
Sea Level Pressure 29.61 in    
Wind  
Wind Speed 5 mph (West)    
Max Wind Speed 13 mph    
Max Gust Speed 22 mph    
Visibility 6 miles    
Events Fog , Snow    
T = Trace of Precipitation, MM = Missing Value Source: NWS Daily Summary

Daily Weather History Graph

Daily Weather History Graph

Search for Another Location

Airport:

Trip Planner

Search our weather history database for the weather conditions in past years. The results will help you decide how hot, cold, wet, or windy it might be!

Date:

Astronomy

Nov. 11, 2011 Rise Set
Actual Time 6:47 AM EST 4:34 PM EST
Civil Twilight 6:16 AM EST 5:05 PM EST
Nautical Twilight 5:41 AM EST 5:39 PM EST
Astronomical Twilight 5:07 AM EST 6:14 PM EST
Moon 4:57 PM EST (11/11) 7:36 AM EST (11/11)
Length of Visible Light 10h 49m
Length of Day
9h 46m
Full, 99% of the Moon is Illuminated
Nov 11
Full
Nov 18
Last Quarter
Nov 25
New
Dec 2
First Quarter
Dec 10
Full

Hourly Weather History & Observations

Time (EST) Temp. Windchill Dew Point Humidity Pressure Visibility Wind Dir Wind Speed Gust Speed Precip Events Conditions
12:03 AM 35.6 °F 32.8 °F 33.8 °F 93% 29.65 in 10.0 mi Variable 3.5 mph - N/A   Mostly Cloudy
12:29 AM 33.8 °F - 32.0 °F 93% 29.65 in 9.0 mi Calm Calm - N/A   Scattered Clouds
12:51 AM 34.0 °F - 33.1 °F 96% 29.67 in 8.0 mi Calm Calm - N/A   Clear
1:51 AM 34.0 °F - 32.0 °F 92% 29.65 in 9.0 mi Calm Calm - N/A   Overcast
2:51 AM 34.0 °F - 32.0 °F 92% 29.62 in 8.0 mi Calm Calm - N/A   Clear
3:51 AM 32.0 °F - 30.0 °F 92% 29.61 in 6.0 mi Calm Calm - N/A   Scattered Clouds
4:51 AM 30.0 °F - 28.9 °F 96% 29.60 in 4.0 mi Calm Calm - N/A   Clear
5:07 AM 30.2 °F - 28.4 °F 93% 29.55 in 2.0 mi Calm Calm - N/A   Clear
5:15 AM 30.2 °F - 28.4 °F 93% 29.55 in 1.5 mi Calm Calm - N/A   Clear
5:35 AM 28.4 °F - 28.4 °F 100% 29.55 in 0.8 mi Calm Calm - N/A   Mist
5:51 AM 28.0 °F - 26.1 °F 92% 29.59 in 0.2 mi Calm Calm - N/A Fog Light Freezing Fog
6:03 AM 26.6 °F - 26.6 °F 100% 29.55 in 0.8 mi Calm Calm - N/A   Mist
6:06 AM 28.4 °F - 26.6 °F 93% 29.55 in 1.2 mi Calm Calm - N/A   Scattered Clouds
6:11 AM 30.2 °F - 28.4 °F 93% 29.55 in 3.0 mi Calm Calm - N/A   Partly Cloudy
6:51 AM 28.4 °F - 28.4 °F 100% 29.54 in 4.0 mi Calm Calm - N/A   Clear
6:59 AM 24.8 °F - 24.8 °F 100% 29.54 in 1.8 mi Calm Calm - N/A   Clear
7:25 AM 28.4 °F - 26.6 °F 93% 29.55 in 2.5 mi Calm Calm - N/A   Clear
7:32 AM 30.2 °F - 28.4 °F 93% 29.55 in 4.0 mi Calm Calm - N/A   Clear
7:51 AM 30.9 °F 27.5 °F 30.0 °F 96% 29.60 in 8.0 mi West 3.5 mph - N/A   Clear
8:47 AM 33.8 °F 30.8 °F 30.2 °F 87% 29.55 in 9.0 mi Variable 3.5 mph - N/A   Mostly Cloudy
8:51 AM 33.1 °F 30.0 °F 30.0 °F 89% 29.59 in 9.0 mi West 3.5 mph - N/A   Mostly Cloudy
9:02 AM 33.8 °F 30.8 °F 30.2 °F 87% 29.54 in 9.0 mi Variable 3.5 mph - N/A   Mostly Cloudy
9:12 AM 33.8 °F 29.6 °F 30.2 °F 87% 29.54 in 10.0 mi Variable 4.6 mph - N/A   Mostly Cloudy
9:51 AM 33.1 °F 26.1 °F 28.9 °F 85% 29.59 in 10.0 mi WNW 8.1 mph - N/A   Mostly Cloudy
10:22 AM 33.8 °F 26.4 °F 28.4 °F 81% 29.55 in 10.0 mi WNW 9.2 mph - N/A   Overcast
10:51 AM 34.0 °F 28.0 °F 28.9 °F 82% 29.58 in 10.0 mi Variable 6.9 mph - N/A   Overcast
11:51 AM 34.0 °F 28.0 °F 28.0 °F 79% 29.56 in 6.0 mi Variable 6.9 mph - 0.00 in Snow Light Snow
12:16 PM 33.8 °F 24.8 °F 26.6 °F 75% 29.52 in 2.5 mi West 12.7 mph 20.7 mph 0.01 in Snow Light Snow
12:24 PM 33.8 °F 27.7 °F 28.4 °F 81% 29.52 in 1.8 mi Variable 6.9 mph 18.4 mph 0.01 in Snow Light Snow
12:28 PM 33.8 °F 29.6 °F 28.4 °F 81% 29.52 in 3.0 mi Variable 4.6 mph - 0.01 in Snow Light Snow
12:51 PM 34.0 °F 28.0 °F 28.0 °F 79% 29.57 in 10.0 mi Variable 6.9 mph - 0.01 in   Mostly Cloudy
1:26 PM 33.8 °F 25.8 °F 28.4 °F 81% 29.53 in 1.8 mi WNW 10.4 mph 16.1 mph 0.00 in Snow Light Snow
1:29 PM 33.8 °F 25.8 °F 28.4 °F 81% 29.53 in 0.8 mi WNW 10.4 mph 17.3 mph 0.00 in Snow Light Snow
1:51 PM 32.0 °F 25.6 °F 28.9 °F 88% 29.58 in 2.0 mi Variable 6.9 mph - 0.01 in Snow Light Snow
1:59 PM 33.8 °F 28.6 °F 28.4 °F 81% 29.54 in 6.0 mi Variable 5.8 mph - 0.00 in Snow Light Snow
2:09 PM 33.8 °F 28.6 °F 28.4 °F 81% 29.54 in 1.5 mi Variable 5.8 mph - 0.00 in Snow Light Snow
2:17 PM 32.0 °F 24.2 °F 28.4 °F 87% 29.54 in 0.5 mi West 9.2 mph - 0.02 in Fog , Snow Snow
2:25 PM 32.0 °F 23.6 °F 28.4 °F 87% 29.55 in 2.0 mi WNW 10.4 mph - 0.02 in Snow Light Snow
2:32 PM 32.0 °F 26.4 °F 28.4 °F 87% 29.55 in 9.0 mi Variable 5.8 mph - 0.02 in   Overcast
2:47 PM 33.8 °F 28.6 °F 26.6 °F 75% 29.55 in 10.0 mi Variable 5.8 mph 18.4 mph 0.02 in   Overcast
2:51 PM 32.0 °F 24.2 °F 27.0 °F 82% 29.60 in 10.0 mi West 9.2 mph 18.4 mph 0.02 in   Overcast
3:51 PM 32.0 °F 26.4 °F 24.1 °F 73% 29.64 in 9.0 mi Variable 5.8 mph 17.3 mph 0.00 in Snow Light Snow
4:51 PM 30.9 °F 24.3 °F 25.0 °F 79% 29.66 in 6.0 mi Variable 6.9 mph 16.1 mph 0.00 in Snow Light Snow
5:42 PM 30.2 °F 24.3 °F 24.8 °F 80% 29.63 in 10.0 mi Variable 5.8 mph - 0.00 in   Overcast
5:51 PM 30.0 °F 24.1 °F 25.0 °F 82% 29.70 in 9.0 mi Variable 5.8 mph - 0.00 in   Overcast
6:51 PM 30.0 °F 24.1 °F 21.9 °F 72% 29.73 in 10.0 mi Variable 5.8 mph 16.1 mph 0.00 in   Overcast
7:30 PM 28.4 °F 22.2 °F 21.2 °F 74% 29.69 in 10.0 mi Variable 5.8 mph - 0.00 in   Overcast
7:51 PM 28.9 °F 23.9 °F 21.9 °F 75% 29.75 in 10.0 mi West 4.6 mph - 0.00 in   Overcast
8:51 PM 30.0 °F 21.7 °F 21.9 °F 72% 29.77 in 10.0 mi WSW 9.2 mph - N/A   Overcast
9:51 PM 30.0 °F 22.4 °F 21.0 °F 69% 29.79 in 10.0 mi WSW 8.1 mph - N/A   Overcast
10:36 PM 28.4 °F 19.7 °F 21.2 °F 74% 29.74 in 10.0 mi WSW 9.2 mph - N/A   Overcast
10:51 PM 28.9 °F 19.8 °F 21.0 °F 72% 29.80 in 10.0 mi WSW 10.4 mph 17.3 mph N/A   Overcast
11:09 PM 28.4 °F 18.5 °F 21.2 °F 74% 29.75 in 10.0 mi WSW 11.5 mph 18.4 mph N/A   Overcast
11:51 PM 28.9 °F 19.8 °F 19.9 °F 69% 29.83 in 10.0 mi WSW 10.4 mph - N/A   Overcast